Time,TemperatureF,DewpointF,PressureIn,WindDirection,WindDirectionDegrees,WindSpeedMPH,WindSpeedGustMPH,Humidity,HourlyPrecipIn,Conditions,Clouds,dailyrainin,SoftwareType,DateUTC
2013-05-23 00:01:00,45.0,44.0,-100.00,NE,43,3.0,5.0,96,-99.99,,,-99.99,,2013-05-23 07:01:00,
2013-05-23 00:11:00,45.0,44.0,-100.00,ENE,59,3.0,4.0,96,-99.99,,,-99.99,,2013-05-23 07:11:00,
2013-05-23 00:21:00,45.0,44.0,-100.00,ENE,76,3.0,5.0,96,-99.99,,,-99.99,,2013-05-23 07:21:00,
2013-05-23 00:31:00,45.0,44.0,-100.00,East,90,2.0,4.0,96,-99.99,,,-99.99,,2013-05-23 07:31:00,
2013-05-23 00:42:00,44.0,43.0,-100.00,East,97,3.0,4.0,96,-99.99,,,-99.99,,2013-05-23 07:42:00,
2013-05-23 00:59:00,44.0,43.0,-100.00,East,97,3.0,4.0,96,-99.99,,,-99.99,,2013-05-23 07:59:00,
2013-05-23 01:11:00,44.0,43.0,-100.00,ESE,118,2.0,4.0,96,-99.99,,,-99.99,,2013-05-23 08:11:00,
2013-05-23 01:21:00,43.0,42.0,-100.00,ENE,72,2.0,3.0,96,-99.99,,,-99.99,,2013-05-23 08:21:00,
2013-05-23 01:31:00,44.0,43.0,-100.00,NE,42,1.0,2.0,96,-99.99,,,-99.99,,2013-05-23 08:31:00,
2013-05-23 01:41:00,44.0,43.0,-100.00,ENE,74,2.0,4.0,96,-99.99,,,-99.99,,2013-05-23 08:41:00,
2013-05-23 01:51:00,42.0,41.0,-100.00,ESE,119,2.0,4.0,96,-99.99,,,-99.99,,2013-05-23 08:51:00,
2013-05-23 02:01:00,42.0,41.0,-100.00,SE,142,3.0,4.0,96,-99.99,,,-99.99,,2013-05-23 09:01:00,
2013-05-23 02:11:00,42.0,41.0,-100.00,SE,142,3.0,4.0,96,-99.99,,,-99.99,,2013-05-23 09:11:00,
2013-05-23 02:21:00,39.0,38.0,-100.00,SE,139,6.0,7.0,96,-99.99,,,-99.99,,2013-05-23 09:21:00,
2013-05-23 02:32:00,39.0,38.0,-100.00,SE,134,4.0,6.0,95,-99.99,,,-99.99,,2013-05-23 09:32:00,
2013-05-23 02:42:00,41.0,39.0,-100.00,ENE,70,2.0,4.0,93,-99.99,,,-99.99,,2013-05-23 09:42:00,
2013-05-23 02:53:00,41.0,39.0,-100.00,ENE,70,2.0,4.0,93,-99.99,,,-99.99,,2013-05-23 09:53:00,
2013-05-23 03:02:00,41.0,39.0,-100.00,ESE,114,4.0,5.0,94,-99.99,,,-99.99,,2013-05-23 10:02:00,
2013-05-23 03:12:00,38.0,36.0,-100.00,SE,135,6.0,8.0,91,-99.99,,,-99.99,,2013-05-23 10:12:00,
2013-05-23 03:22:00,39.0,34.0,-100.00,ESE,121,4.0,7.0,83,-99.99,,,-99.99,,2013-05-23 10:22:00,
2013-05-23 03:32:00,40.0,36.0,-100.00,ESE,114,3.0,4.0,84,-99.99,,,-99.99,,2013-05-23 10:32:00,
2013-05-23 03:42:00,40.0,35.0,-100.00,SE,130,2.0,4.0,82,-99.99,,,-99.99,,2013-05-23 10:42:00,
2013-05-23 03:52:00,41.0,36.0,-100.00,ESE,115,1.0,2.0,83,-99.99,,,-99.99,,2013-05-23 10:52:00,
2013-05-23 04:02:00,41.0,35.0,-100.00,SE,132,3.0,5.0,78,-99.99,,,-99.99,,2013-05-23 11:02:00,
2013-05-23 04:11:00,42.0,35.0,-100.00,ESE,116,3.0,5.0,75,-99.99,,,-99.99,,2013-05-23 11:11:00,
2013-05-23 04:21:00,42.0,35.0,-100.00,ESE,116,3.0,5.0,75,-99.99,,,-99.99,,2013-05-23 11:21:00,
2013-05-23 04:32:00,41.0,35.0,-100.00,ESE,108,5.0,5.0,78,-99.99,,,-99.99,,2013-05-23 11:32:00,
2013-05-23 04:41:00,41.0,35.0,-100.00,ESE,108,5.0,5.0,78,-99.99,,,-99.99,,2013-05-23 11:41:00,
2013-05-23 04:52:00,41.0,35.0,-100.00,ESE,108,5.0,5.0,78,-99.99,,,-99.99,,2013-05-23 11:52:00,
2013-05-23 05:01:00,40.0,32.0,-100.00,SE,134,3.0,4.0,73,-99.99,,,-99.99,,2013-05-23 12:01:00,
2013-05-23 05:11:00,42.0,34.0,-100.00,ESE,119,3.0,4.0,73,-99.99,,,-99.99,,2013-05-23 12:11:00,
2013-05-23 05:21:00,42.0,34.0,-100.00,ESE,115,4.0,7.0,72,-99.99,,,-99.99,,2013-05-23 12:21:00,
2013-05-23 05:32:00,41.0,33.0,-100.00,ESE,114,6.0,8.0,74,-99.99,,,-99.99,,2013-05-23 12:32:00,
2013-05-23 05:41:00,41.0,33.0,-100.00,ESE,120,7.0,8.0,74,-99.99,,,-99.99,,2013-05-23 12:41:00,
2013-05-23 05:51:00,41.0,33.0,-100.00,ESE,120,7.0,8.0,74,-99.99,,,-99.99,,2013-05-23 12:51:00,
2013-05-23 06:01:00,41.0,32.0,-100.00,ESE,121,6.0,8.0,71,-99.99,,,-99.99,,2013-05-23 13:01:00,
2013-05-23 06:11:00,41.0,32.0,-100.00,SE,142,7.0,9.0,70,-99.99,,,-99.99,,2013-05-23 13:11:00,
2013-05-23 06:21:00,41.0,32.0,-100.00,SE,145,7.0,9.0,69,-99.99,,,-99.99,,2013-05-23 13:21:00,
2013-05-23 06:31:00,40.0,31.0,-100.00,SE,141,7.0,10.0,70,-99.99,,,-99.99,,2013-05-23 13:31:00,
2013-05-23 06:41:00,41.0,31.0,-100.00,SE,142,7.0,10.0,66,-99.99,,,-99.99,,2013-05-23 13:41:00,
2013-05-23 06:52:00,41.0,31.0,-100.00,SE,142,7.0,10.0,66,-99.99,,,-99.99,,2013-05-23 13:52:00,
2013-05-23 07:01:00,43.0,30.0,-100.00,SE,143,6.0,9.0,59,-99.99,,,-99.99,,2013-05-23 14:01:00,
2013-05-23 07:11:00,45.0,29.0,-100.00,SE,142,7.0,9.0,54,-99.99,,,-99.99,,2013-05-23 14:11:00,
2013-05-23 07:21:00,47.0,28.0,-100.00,SE,142,6.0,7.0,48,-99.99,,,-99.99,,2013-05-23 14:21:00,
2013-05-23 07:32:00,47.0,28.0,-100.00,SE,142,6.0,7.0,48,-99.99,,,-99.99,,2013-05-23 14:32:00,
2013-05-23 07:41:00,52.0,27.0,-100.00,SE,138,3.0,6.0,37,-99.99,,,-99.99,,2013-05-23 14:41:00,
2013-05-23 07:52:00,53.0,29.0,-100.00,West,265,1.0,3.0,40,-99.99,,,-99.99,,2013-05-23 14:52:00,
2013-05-23 08:01:00,52.0,30.0,-100.00,NW,314,2.0,4.0,42,-99.99,,,-99.99,,2013-05-23 15:01:00,
2013-05-23 08:11:00,51.0,34.0,-100.00,NNW,335,3.0,4.0,53,-99.99,,,-99.99,,2013-05-23 15:11:00,
2013-05-23 08:21:00,51.0,36.0,-100.00,NNW,343,3.0,4.0,57,-99.99,,,-99.99,,2013-05-23 15:21:00,
2013-05-23 08:32:00,52.0,35.0,-100.00,NW,324,3.0,4.0,53,-99.99,,,-99.99,,2013-05-23 15:32:00,
2013-05-23 08:42:00,54.0,35.0,-100.00,NW,306,3.0,5.0,48,-99.99,,,-99.99,,2013-05-23 15:42:00,
2013-05-23 08:53:00,55.0,33.0,-100.00,WNW,291,4.0,6.0,44,-99.99,,,-99.99,,2013-05-23 15:53:00,
2013-05-23 09:03:00,56.0,34.0,-100.00,WNW,284,4.0,6.0,44,-99.99,,,-99.99,,2013-05-23 16:03:00,
2013-05-23 09:12:00,56.0,34.0,-100.00,WNW,284,4.0,6.0,44,-99.99,,,-99.99,,2013-05-23 16:12:00,
2013-05-23 09:22:00,56.0,34.0,-100.00,WNW,284,4.0,6.0,44,-99.99,,,-99.99,,2013-05-23 16:22:00,
2013-05-23 09:30:00,58.0,36.0,-100.00,WSW,245,5.0,9.0,43,-99.99,,,-99.99,,2013-05-23 16:30:00,
2013-05-23 09:33:00,57.0,35.0,-100.00,WSW,255,6.0,10.0,44,-99.99,,,-99.99,,2013-05-23 16:33:00,
2013-05-23 09:42:00,57.0,35.0,-100.00,WSW,249,5.0,12.0,44,-99.99,,,-99.99,,2013-05-23 16:42:00,
2013-05-23 09:52:00,58.0,36.0,-100.00,WSW,245,5.0,9.0,43,-99.99,,,-99.99,,2013-05-23 16:52:00,
2013-05-23 10:03:00,58.0,36.0,-100.00,WSW,245,5.0,9.0,43,-99.99,,,-99.99,,2013-05-23 17:03:00,
2013-05-23 10:11:00,58.0,36.0,-100.00,WSW,245,5.0,9.0,43,-99.99,,,-99.99,,2013-05-23 17:11:00,
2013-05-23 10:22:00,58.0,36.0,-100.00,WSW,245,5.0,9.0,43,-99.99,,,-99.99,,2013-05-23 17:22:00,
2013-05-23 10:42:00,59.0,39.0,-100.00,West,274,5.0,12.0,47,-99.99,,,-99.99,,2013-05-23 17:42:00,
2013-05-23 10:52:00,59.0,39.0,-100.00,West,274,5.0,12.0,47,-99.99,,,-99.99,,2013-05-23 17:52:00,
2013-05-23 11:01:00,59.0,39.0,-100.00,West,274,5.0,12.0,47,-99.99,,,-99.99,,2013-05-23 18:01:00,
2013-05-23 11:11:00,60.0,37.0,-100.00,West,278,9.0,14.0,43,-99.99,,,-99.99,,2013-05-23 18:11:00,
2013-05-23 11:21:00,60.0,37.0,-100.00,West,278,9.0,14.0,43,-99.99,,,-99.99,,2013-05-23 18:21:00,
2013-05-23 11:32:00,60.0,38.0,-100.00,WNW,284,8.0,14.0,44,-99.99,,,-99.99,,2013-05-23 18:32:00,
2013-05-23 11:42:00,60.0,38.0,-100.00,WNW,284,8.0,14.0,44,-99.99,,,-99.99,,2013-05-23 18:42:00,
2013-05-23 11:51:00,60.0,38.0,-100.00,WNW,284,8.0,14.0,44,-99.99,,,-99.99,,2013-05-23 18:51:00,
2013-05-23 12:01:00,61.0,40.0,-100.00,WNW,282,10.0,17.0,46,-99.99,,,-99.99,,2013-05-23 19:01:00,
2013-05-23 12:11:00,61.0,42.0,-100.00,WNW,302,10.0,16.0,50,-99.99,,,-99.99,,2013-05-23 19:11:00,
2013-05-23 12:21:00,61.0,43.0,-100.00,NW,306,9.0,16.0,51,-99.99,,,-99.99,,2013-05-23 19:21:00,
2013-05-23 12:31:00,61.0,43.0,-100.00,WNW,296,10.0,15.0,51,-99.99,,,-99.99,,2013-05-23 19:31:00,
2013-05-23 12:41:00,62.0,43.0,-100.00,West,272,9.0,15.0,50,-99.99,,,-99.99,,2013-05-23 19:41:00,
2013-05-23 12:52:00,62.0,43.0,-100.00,West,272,9.0,15.0,50,-99.99,,,-99.99,,2013-05-23 19:52:00,
2013-05-23 13:02:00,62.0,44.0,-100.00,WNW,284,11.0,16.0,51,-99.99,,,-99.99,,2013-05-23 20:02:00,
2013-05-23 13:11:00,62.0,43.0,-100.00,WNW,286,7.0,13.0,50,-99.99,,,-99.99,,2013-05-23 20:11:00,
2013-05-23 13:21:00,62.0,44.0,-100.00,WNW,289,10.0,16.0,51,-99.99,,,-99.99,,2013-05-23 20:21:00,
2013-05-23 13:32:00,63.0,45.0,-100.00,West,281,9.0,16.0,51,-99.99,,,-99.99,,2013-05-23 20:32:00,
2013-05-23 13:41:00,63.0,44.0,-100.00,WNW,290,10.0,17.0,50,-99.99,,,-99.99,,2013-05-23 20:41:00,
2013-05-23 13:51:00,64.0,44.0,-100.00,WNW,296,9.0,15.0,49,-99.99,,,-99.99,,2013-05-23 20:51:00,
2013-05-23 14:01:00,63.0,44.0,-100.00,WNW,283,9.0,15.0,49,-99.99,,,-99.99,,2013-05-23 21:01:00,
2013-05-23 14:11:00,63.0,44.0,-100.00,WNW,283,9.0,15.0,49,-99.99,,,-99.99,,2013-05-23 21:11:00,
2013-05-23 14:21:00,63.0,44.0,-100.00,WNW,283,9.0,15.0,49,-99.99,,,-99.99,,2013-05-23 21:21:00,
2013-05-23 14:32:00,63.0,42.0,-100.00,WNW,282,11.0,19.0,47,-99.99,,,-99.99,,2013-05-23 21:32:00,
2013-05-23 14:43:00,63.0,42.0,-100.00,West,279,11.0,16.0,47,-99.99,,,-99.99,,2013-05-23 21:43:00,
2013-05-23 14:53:00,64.0,43.0,-100.00,West,279,12.0,18.0,47,-99.99,,,-99.99,,2013-05-23 21:53:00,
2013-05-23 15:02:00,63.0,44.0,-100.00,WNW,288,13.0,20.0,49,-99.99,,,-99.99,,2013-05-23 22:02:00,
2013-05-23 15:12:00,63.0,45.0,-100.00,WNW,282,13.0,19.0,51,-99.99,,,-99.99,,2013-05-23 22:12:00,
2013-05-23 15:22:00,63.0,45.0,-100.00,WNW,289,14.0,18.0,52,-99.99,,,-99.99,,2013-05-23 22:22:00,
2013-05-23 15:33:00,63.0,45.0,-100.00,WNW,283,12.0,19.0,51,-99.99,,,-99.99,,2013-05-23 22:33:00,
2013-05-23 15:42:00,62.0,44.0,-100.00,West,279,12.0,19.0,52,-99.99,,,-99.99,,2013-05-23 22:42:00,
2013-05-23 15:52:00,63.0,44.0,-100.00,WNW,282,13.0,18.0,50,-99.99,,,-99.99,,2013-05-23 22:52:00,
2013-05-23 16:01:00,63.0,44.0,-100.00,WNW,282,13.0,18.0,50,-99.99,,,-99.99,,2013-05-23 23:01:00,
2013-05-23 16:11:00,62.0,43.0,-100.00,WNW,286,12.0,16.0,50,-99.99,,,-99.99,,2013-05-23 23:11:00,
2013-05-23 16:21:00,62.0,43.0,-100.00,WNW,286,12.0,16.0,50,-99.99,,,-99.99,,2013-05-23 23:21:00,
2013-05-23 16:31:00,62.0,43.0,-100.00,West,280,12.0,17.0,50,-99.99,,,-99.99,,2013-05-23 23:31:00,
2013-05-23 16:42:00,61.0,43.0,-100.00,WNW,287,13.0,17.0,52,-99.99,,,-99.99,,2013-05-23 23:42:00,
2013-05-23 16:52:00,61.0,43.0,-100.00,WNW,284,12.0,19.0,51,-99.99,,,-99.99,,2013-05-23 23:52:00,
2013-05-23 17:01:00,61.0,43.0,-100.00,WNW,284,12.0,19.0,51,-99.99,,,-99.99,,2013-05-24 00:01:00,
2013-05-23 17:11:00,61.0,42.0,-100.00,WNW,293,11.0,16.0,50,-99.99,,,-99.99,,2013-05-24 00:11:00,
2013-05-23 17:21:00,61.0,42.0,-100.00,WNW,284,11.0,17.0,50,-99.99,,,-99.99,,2013-05-24 00:21:00,
2013-05-23 17:31:00,61.0,43.0,-100.00,WNW,295,11.0,17.0,51,-99.99,,,-99.99,,2013-05-24 00:31:00,
2013-05-23 17:42:00,60.0,43.0,-100.00,WNW,298,12.0,16.0,53,-99.99,,,-99.99,,2013-05-24 00:42:00,
2013-05-23 17:52:00,60.0,43.0,-100.00,WNW,298,12.0,16.0,53,-99.99,,,-99.99,,2013-05-24 00:52:00,
2013-05-23 18:01:00,60.0,43.0,-100.00,WNW,295,10.0,15.0,54,-99.99,,,-99.99,,2013-05-24 01:01:00,
2013-05-23 18:12:00,60.0,44.0,-100.00,WNW,296,11.0,15.0,56,-99.99,,,-99.99,,2013-05-24 01:12:00,
2013-05-23 18:21:00,59.0,44.0,-100.00,NW,309,10.0,14.0,57,-99.99,,,-99.99,,2013-05-24 01:21:00,
2013-05-23 18:32:00,59.0,44.0,-100.00,WNW,303,10.0,14.0,58,-99.99,,,-99.99,,2013-05-24 01:32:00,
2013-05-23 18:41:00,58.0,44.0,-100.00,NW,305,9.0,13.0,60,-99.99,,,-99.99,,2013-05-24 01:41:00,
2013-05-23 18:52:00,58.0,45.0,-100.00,WNW,297,8.0,12.0,61,-99.99,,,-99.99,,2013-05-24 01:52:00,
2013-05-23 19:01:00,57.0,45.0,-100.00,NW,304,8.0,11.0,64,-99.99,,,-99.99,,2013-05-24 02:01:00,
2013-05-23 19:11:00,57.0,45.0,-100.00,NW,304,8.0,11.0,64,-99.99,,,-99.99,,2013-05-24 02:11:00,
2013-05-23 19:21:00,55.0,45.0,-100.00,NW,306,9.0,14.0,70,-99.99,,,-99.99,,2013-05-24 02:21:00,
2013-05-23 19:32:00,55.0,45.0,-100.00,NW,306,9.0,14.0,70,-99.99,,,-99.99,,2013-05-24 02:32:00,
2013-05-23 19:41:00,54.0,46.0,-100.00,WNW,303,6.0,8.0,74,-99.99,,,-99.99,,2013-05-24 02:41:00,
2013-05-23 19:52:00,54.0,47.0,-100.00,NW,306,7.0,8.0,78,-99.99,,,-99.99,,2013-05-24 02:52:00,
2013-05-23 20:02:00,53.0,47.0,-100.00,WNW,303,6.0,8.0,81,-99.99,,,-99.99,,2013-05-24 03:02:00,
2013-05-23 20:11:00,52.0,47.0,-100.00,WNW,297,4.0,6.0,84,-99.99,,,-99.99,,2013-05-24 03:11:00,
2013-05-23 20:21:00,51.0,47.0,-100.00,West,280,4.0,4.0,85,-99.99,,,-99.99,,2013-05-24 03:21:00,
2013-05-23 20:33:00,51.0,47.0,-100.00,NW,317,3.0,5.0,86,-99.99,,,-99.99,,2013-05-24 03:33:00,
2013-05-23 20:42:00,51.0,48.0,-100.00,NW,324,4.0,5.0,88,-99.99,,,-99.99,,2013-05-24 03:42:00,
2013-05-23 20:52:00,50.0,47.0,-100.00,North,354,2.0,4.0,89,-99.99,,,-99.99,,2013-05-24 03:52:00,
2013-05-23 21:03:00,50.0,47.0,-100.00,NE,42,1.0,2.0,90,-99.99,,,-99.99,,2013-05-24 04:03:00,
2013-05-23 21:12:00,49.0,46.0,-100.00,SE,133,2.0,4.0,89,-99.99,,,-99.99,,2013-05-24 04:12:00,
2013-05-23 21:22:00,49.0,46.0,-100.00,SE,133,2.0,4.0,89,-99.99,,,-99.99,,2013-05-24 04:22:00,
2013-05-23 21:33:00,48.0,45.0,-100.00,SE,137,3.0,4.0,88,-99.99,,,-99.99,,2013-05-24 04:33:00,
2013-05-23 21:42:00,48.0,45.0,-100.00,SE,136,4.0,7.0,88,-99.99,,,-99.99,,2013-05-24 04:42:00,
2013-05-23 21:52:00,48.0,45.0,-100.00,SE,131,5.0,6.0,88,-99.99,,,-99.99,,2013-05-24 04:52:00,
2013-05-23 22:02:00,48.0,44.0,-100.00,SE,125,3.0,5.0,87,-99.99,,,-99.99,,2013-05-24 05:02:00,
2013-05-23 22:12:00,48.0,44.0,-100.00,SE,124,3.0,4.0,87,-99.99,,,-99.99,,2013-05-24 05:12:00,
2013-05-23 22:22:00,48.0,44.0,-100.00,ESE,116,4.0,6.0,86,-99.99,,,-99.99,,2013-05-24 05:22:00,
2013-05-23 22:32:00,48.0,43.0,-100.00,ESE,114,4.0,6.0,84,-99.99,,,-99.99,,2013-05-24 05:32:00,
2013-05-23 22:42:00,47.0,42.0,-100.00,SE,129,2.0,3.0,83,-99.99,,,-99.99,,2013-05-24 05:42:00,
2013-05-23 22:52:00,46.0,42.0,-100.00,SE,130,3.0,5.0,85,-99.99,,,-99.99,,2013-05-24 05:52:00,
2013-05-23 23:01:00,46.0,42.0,-100.00,ESE,102,5.0,7.0,85,-99.99,,,-99.99,,2013-05-24 06:01:00,
2013-05-23 23:11:00,46.0,42.0,-100.00,ESE,102,5.0,7.0,85,-99.99,,,-99.99,,2013-05-24 06:11:00,
2013-05-23 23:21:00,46.0,40.0,-100.00,SE,126,6.0,9.0,79,-99.99,,,-99.99,,2013-05-24 06:21:00,
2013-05-23 23:32:00,46.0,40.0,-100.00,SE,126,6.0,9.0,79,-99.99,,,-99.99,,2013-05-24 06:32:00,
2013-05-23 23:41:00,44.0,39.0,-100.00,SE,129,6.0,7.0,81,-99.99,,,-99.99,,2013-05-24 06:41:00,
2013-05-23 23:52:00,45.0,39.0,-100.00,ESE,116,4.0,5.0,78,-99.99,,,-99.99,,2013-05-24 06:52:00,